Home   Weather   Boké   Past weeks

Flag for Guinea Past Weather in Boké, Guinea — Yesterday and Last 2 Weeks

Now
81 °F

Clear.


Feels Like: 83 °F
Forecast: 74 / 109 °F
Wind: No wind

Location: Conakry / Gbessia

Current Time: Apr 26, 2017 at 12:51:39 am

Latest Report: Apr 26, 2017 at 12:00 am


Visibility: 10 mi

Pressure: 29.86 "Hg

Humidity: 66%

Dew Point: 68 °F

Location of BokéLocation

Past Weather in Boké — Graph

°F

Boké Temperature Yesterday

Maximum temperature yesterday: 93 °F (at 1:00 pm)
Minimum temperature yesterday: 77 °F (at 6:00 am)
Average temperature yesterday: 84 °F

High & Low Weather Summary for the Past Weeks

 TemperatureHumidityPressure
High93 °F (Apr 17, 1:00 pm)94% (Apr 11, 1:00 am)30.50 "Hg (Apr 11, 1:00 am)
Low73 °F (Apr 11, 5:00 am)30% (Apr 17, 2:00 pm)29.74 "Hg (Apr 11, 3:00 pm)
Average84 °F71%29.84 "Hg
* Reported Apr 10 11:00 pm — Apr 25 11:00 pm, Boké, Weather by CustomWeather, © 2017

Note: Actual official high and low records may vary slightly from our data, if they occured in-between our weather recording intervals... More about our weather records

Advertising

Boké Weather History for the Previous 24 Hours

Scroll right to see more
 ConditionsComfort  
Time TempWeatherWind HumidityBarometerVisibility
11:00 pm
Tue, Apr 25
82 °FClear.2 mph62%29.86 "Hg10 mi
10:00 pm82 °FClear.No wind62%29.83 "Hg10 mi
9:00 pm82 °FClear.5 mph62%29.83 "Hg10 mi
8:00 pm84 °FClear.7 mph58%29.80 "Hg10 mi
7:00 pm84 °FSunny.9 mph55%29.77 "Hg10 mi
6:00 pm88 °FSunny.14 mph55%29.77 "Hg10 mi
5:00 pm90 °FSunny.14 mph49%29.74 "Hg10 mi
4:00 pm91 °FSunny.14 mph44%29.74 "Hg10 mi
3:00 pm91 °FSunny.12 mph38%29.77 "Hg10 mi
2:00 pm93 °FSunny.12 mph30%29.80 "Hg10 mi
1:00 pm93 °FSunny.9 mph34%29.83 "Hg10 mi
12:00 pm91 °FSunny.9 mph36%29.86 "Hg10 mi
11:00 am88 °FSunny.7 mph62%29.89 "Hg10 mi
10:00 am86 °FSunny.No wind59%29.89 "Hg10 mi
9:00 am82 °FSunny.No wind70%29.89 "Hg10 mi
8:00 am79 °FFog.2 mph84%29.89 "Hg2 mi
7:00 am77 °FFog.5 mph89%29.86 "Hg2 mi
6:00 am77 °FFog.No wind89%29.86 "Hg2 mi
5:00 am79 °FFog.No wind84%29.83 "Hg2 mi
4:00 am79 °FFog.No wind84%29.83 "Hg2 mi
3:00 am79 °FFog.No wind84%29.86 "Hg2 mi
2:00 am79 °FFog.No wind84%29.89 "Hg2 mi
1:00 am81 °FHaze.No wind74%29.89 "Hg3 mi
12:00 am81 °FHaze.No wind74%29.89 "Hg3 mi
Weather by CustomWeather, © 2017

See weather overviewHow to use our weather pages